Cloud_Cover
100 100 100 100 100 100 100 100 100 100 98 100 100 100 100 100 100 64 100 100 100 100 100 100 100 100 100 100 100 100 94 100 100 100 100 100 100 100 99 100 100 100 100 42
100 100 100 100 100 100 100 100 100 100 100 100 100 100 100 100 70 100 100 80 70 77 59 99 100 88 100 100 100 100 100 100 100 100 100 100 100 96 100 100 80 95 72 58
100 100 100 100 100 100 100 100 100 100 100 37 100 99 100 100 82 100 100 100 64 26 76 79 100 100 99 100 100 100 100 100 100 91 100 100 100 100 80 98 76 26 69 100
100 100 100 100 100 100 100 100 100 100 100 100 100 100 100 100 100 98 100 58 100 70 100 100 100 100 100 100 100 100 100 100 100 100 100 100 99 100 99 91 70 78 63 36
100 100 100 100 100 100 100 100 100 100 5 96 100 100 100 99 100 93 56 100 100 100 100 96 98 100 100 100 100 100 96 86 74 100 100 95 28 81 90 5 5 6 22 5
100 100 76 100 100 100 100 100 92 100 32 100 100 100 100 100 100 100 100 99 100 100 100 98 94 100 100 100 100 100 100 100 84 92 61 30 9 100 75 5 5 12 11 10
100 100 100 100 100 100 100 100 100 100 100 100 98 100 100 100 100 100 100 100 100 100 100 100 100 100 100 100 100 100 100 100 100 100 98 48 86 99 61 5 5 27 5 5
100 100 100 74 100 100 100 92 100 83 100 60 100 100 100 100 100 100 100 100 100 100 100 100 100 100 100 100 100 100 100 100 100 100 100 56 98 99 61 5 5 57 8 70
100 100 100 100 100 100 100 100 100 100 100 100 100 95 100 100 100 100 100 100 100 100 100 100 100 100 100 100 100 100 100 100 100 100 100 100 100 100 100 100 100 100 100 100
100 99 100 100 100 100 100 98 100 100 100 100 100 100 100 100 100 100 100 100 100 100 100 100 100 100 100 100 100 100 100 100 100 100 100 100 100 100 100 86 73 100 100 100
100 100 80 100 100 100 100 100 100 100 100 100 100 100 100 100 100 100 100 100 100 100 96 89 100 100 100 100 100 100 100 100 100 100 89 100 100 100 100 100 100 100 100 100
100 100 100 100 100 100 100 100 100 100 100 100 100 100 100 100 100 100 74 100 100 100 100 92 100 100 100 100 100 100 100 100 100 100 100 100 100 100 100 100 100 100 100 100
100 100 100 100 100 100 100 100 100 100 100 100 100 100 100 100 100 89 100 100 100 100 100 100 100 94 100 100 100 100 100 100 100 100 100 100 100 100 100 100 100 100 100 100
100 100 100 100 100 100 100 100 100 100 100 100 100 100 100 100 100 100 100 89 100 100 100 75 36 36 26 95 100 100 100 100 100 100 100 100 100 100 100 100 100 100 100 100
100 100 100 100 100 100 100 100 100 100 100 100 100 100 100 100 100 100 100 100 100 100 100 93 82 59 36 8 7 81 100 100 100 100 100 100 100 100 100 100 100 100 100 100
100 100 100 100 100 100 100 100 100 100 100 100 100 100 100 100 100 100 100 100 100 100 100 100 82 10 65 52 9 14 5 5 46 100 100 100 100 100 100 100 100 100 100 90
55 41 66 100 100 100 100 100 94 100 64 100 100 100 100 100 100 100 100 100 100 100 88 100 99 63 71 20 5 5 6 5 6 5 5 47 25 29 4 2 1 1 5 5
90 100 100 100 100 100 100 100 100 100 100 100 100 100 100 100 100 100 100 100 100 100 100 100 95 66 42 5 4 5 32 16 5 5 5 5 5 5 2 0 5 5 5 5
100 100 100 100 100 100 100 100 100 100 100 100 100 100 100 100 100 100 100 100 100 100 100 100 100 76 37 5 5 55 58 5 5 5 5 8 5 5 5 1 0 0 0 5
100 100 100 100 100 100 100 100 100 100 100 100 100 100 100 100 100 100 100 100 100 100 100 100 100 34 59 15 83 5 5 5 2 5 0 0 0 0 0 0 0 0 0 1
100 100 100 100 100 100 100 100 100 100 100 100 100 100 100 100 100 100 100 100 100 100 100 99 15 5 64 96 84 69 36 24 12 1 0 1 1 0 5 5 5 4 1 0
100 100 100 100 100 100 100 100 100 100 100 60 79 100 100 100 100 100 100 100 100 100 100 83 10 42 82 80 100 100 100 48 6 5 5 5 5 5 5 5 5 4 4 0
100 100 100 100 100 100 100 100 100 99 72 51 30 98 100 100 98 92 100 100 100 100 88 32 51 98 43 88 66 32 12 7 5 5 5 5 5 5 2 5 5 5 5 1
100 100 100 100 100 100 100 100 100 50 21 10 7 6 74 76 64 100 100 96 99 100 100 92 100 99 90 82 86 100 99 86 84 81 49 10 5 5 5 5 19 94 100 100
100 100 100 100 100 100 100 100 44 77 93 97 98 7 8 34 27 5 25 40 39 50 94 95 17 0 0 5 5 10 5 4 3 4 5 8 46 5 5 39 1 2 100 100
100 100 100 100 100 100 100 99 100 100 100 100 100 100 98 70 2 0 4 1 1 3 2 0 0 1 5 5 5 4 4 5 5 5 5 5 20 46 5 5 1 100 92 100
100 100 100 100 100 84 100 100 100 100 100 100 100 93 5 5 2 0 0 0 0 0 0 0 0 0 0 0 0 3 5 5 5 8 5 5 5 5 4 0 0 5 0 89